THY2VJ LROP-LTFM

Flight info

Callsign THY2VJ
Flight time N/A
Altitude 41000
Route IDARU DCT NONQE DCT MAXOV DCT MATEL L620 RIXEN
Aircraft A359/H-SDE2E3GHIJ3J4J5LM1ORWXY/LB1D1

Departure

Time 2026-05-07 13:30
Airport Bucharest Henri Coandă International Airport (LROP)

Arrival

Time N/A
Airport İstanbul Airport (LTFM)
Time Latitude Longitude Altitude Speed Heading
2026-05-07 13:04 44.57040 26.08256 320 ft 0 kts 307°
2026-05-07 13:04 44.57041 26.08252 320 ft 0 kts 309°
2026-05-07 13:22 44.57038 26.08258 322 ft 4 kts 307°
2026-05-07 13:22 44.57023 26.08290 319 ft 4 kts 295°
2026-05-07 13:22 44.57013 26.08325 319 ft 4 kts 285°
2026-05-07 13:22 44.57007 26.08361 319 ft 4 kts 286°
2026-05-07 13:23 44.56997 26.08389 319 ft 3 kts 344°
2026-05-07 13:23 44.56994 26.08391 322 ft 0 kts 353°
2026-05-07 13:25 44.57001 26.08389 322 ft 5 kts 353°
2026-05-07 13:26 44.57073 26.08379 318 ft 14 kts 354°
2026-05-07 13:26 44.57178 26.08365 319 ft 9 kts 354°
2026-05-07 13:26 44.57201 26.08367 320 ft 5 kts 13°
2026-05-07 13:26 44.57224 26.08402 319 ft 5 kts 68°
2026-05-07 13:27 44.57237 26.08460 321 ft 7 kts 66°
2026-05-07 13:27 44.57272 26.08488 324 ft 6 kts
2026-05-07 13:27 44.57324 26.08489 322 ft 8 kts 354°
2026-05-07 13:27 44.57390 26.08478 324 ft 11 kts 353°
2026-05-07 13:28 44.57473 26.08465 327 ft 13 kts 353°
2026-05-07 13:28 44.57560 26.08450 328 ft 13 kts 353°
2026-05-07 13:28 44.57640 26.08444 331 ft 8 kts
2026-05-07 13:28 44.57655 26.08457 330 ft 2 kts 38°
2026-05-07 13:29 44.57667 26.08483 330 ft 4 kts 68°
2026-05-07 13:29 44.57676 26.08583 333 ft 27 kts 83°
2026-05-07 13:29 44.57723 26.09206 320 ft 104 kts 84°
2026-05-07 13:29 44.57830 26.10532 370 ft 165 kts 85°
2026-05-07 13:30 44.57968 26.12138 1153 ft 163 kts 86°
2026-05-07 13:30 44.58086 26.13756 1885 ft 178 kts 88°
2026-05-07 13:30 44.58210 26.15609 2343 ft 200 kts 86°
2026-05-07 13:30 44.58356 26.17613 2960 ft 213 kts 86°
2026-05-07 13:31 44.58517 26.19835 3299 ft 246 kts 85°
2026-05-07 13:31 44.58699 26.22304 3882 ft 263 kts 85°
2026-05-07 13:31 44.58889 26.24820 4770 ft 269 kts 84°
2026-05-07 13:31 44.59088 26.27460 5641 ft 275 kts 84°
2026-05-07 13:32 44.59290 26.30170 6551 ft 282 kts 84°
2026-05-07 13:32 44.59494 26.32922 7528 ft 286 kts 84°
2026-05-07 13:32 44.59701 26.35730 8530 ft 291 kts 84°
2026-05-07 13:32 44.59909 26.38574 9600 ft 294 kts 84°
2026-05-07 13:33 44.60120 26.41458 10522 ft 303 kts 84°